CCA8393 ZGGG-ZBAD

Flight info

Callsign CCA8393
Flight time 2h 24m
Altitude 37100
Route MIKIP A461 BUBDA W56 ORODO W62 TEKIL G212 BELAX
Aircraft B744/H-SDE3FGHIM1M2RWXY/LB1

Departure

Time 2026-05-04 13:53
Airport Guangzhou Baiyun International Airport (ZGGG)

Arrival

Time 2026-05-04 16:18
Airport Beijing Daxing International Airport (ZBAD)
Time Latitude Longitude Altitude Speed Heading
2026-05-04 13:23 23.38503 113.29169 62 ft 0 kts 14°
2026-05-04 13:42 23.38482 113.29163 62 ft 4 kts 14°
2026-05-04 13:42 23.38456 113.29156 62 ft 4 kts 14°
2026-05-04 13:42 23.38432 113.29149 62 ft 4 kts 12°
2026-05-04 13:42 23.38411 113.29147 62 ft 4 kts 334°
2026-05-04 13:43 23.38397 113.29160 62 ft 4 kts 291°
2026-05-04 13:43 23.38389 113.29187 62 ft 2 kts 284°
2026-05-04 13:43 23.38389 113.29189 62 ft 0 kts 284°
2026-05-04 13:47 23.38404 113.29125 62 ft 10 kts 284°
2026-05-04 13:48 23.38421 113.29051 62 ft 10 kts 284°
2026-05-04 13:48 23.38437 113.28981 62 ft 9 kts 284°
2026-05-04 13:48 23.38453 113.28913 62 ft 9 kts 284°
2026-05-04 13:48 23.38460 113.28848 62 ft 9 kts 235°
2026-05-04 13:49 23.38393 113.28823 62 ft 12 kts 194°
2026-05-04 13:49 23.38310 113.28801 62 ft 12 kts 194°
2026-05-04 13:49 23.38234 113.28780 62 ft 10 kts 194°
2026-05-04 13:49 23.38191 113.28734 62 ft 10 kts 275°
2026-05-04 13:50 23.38170 113.28675 62 ft 10 kts 195°
2026-05-04 13:50 23.38097 113.28654 62 ft 11 kts 194°
2026-05-04 13:50 23.38015 113.28632 62 ft 14 kts 194°
2026-05-04 13:50 23.37924 113.28607 62 ft 13 kts 194°
2026-05-04 13:51 23.37837 113.28584 62 ft 13 kts 194°
2026-05-04 13:51 23.37754 113.28561 62 ft 12 kts 194°
2026-05-04 13:51 23.37683 113.28541 62 ft 9 kts 205°
2026-05-04 13:51 23.37679 113.28482 62 ft 8 kts 284°
2026-05-04 13:52 23.37712 113.28368 62 ft 8 kts 337°
2026-05-04 13:52 23.37765 113.28374 62 ft 8 kts 13°
2026-05-04 13:52 23.37915 113.28414 62 ft 42 kts 14°
2026-05-04 13:53 23.38434 113.28555 63 ft 112 kts 15°
2026-05-04 13:53 23.39407 113.28812 85 ft 170 kts 14°
2026-05-04 13:53 23.40568 113.29102 767 ft 169 kts 15°
2026-05-04 13:54 23.42895 113.29196 2184 ft 166 kts 350°
2026-05-04 13:54 23.44040 113.28896 2448 ft 172 kts 348°
2026-05-04 13:54 23.46392 113.28256 3134 ft 176 kts 348°
2026-05-04 13:55 23.47590 113.27918 3443 ft 181 kts 347°
2026-05-04 13:55 23.50216 113.27194 3744 ft 213 kts 347°
2026-05-04 13:55 23.51711 113.26784 3885 ft 229 kts 347°
2026-05-04 13:56 23.53315 113.26537 4118 ft 239 kts 359°
2026-05-04 13:56 23.55027 113.26663 4295 ft 255 kts
2026-05-04 13:56 23.58713 113.27321 5236 ft 270 kts 10°
2026-05-04 13:57 23.60544 113.27660 6051 ft 268 kts 10°
2026-05-04 13:57 23.62392 113.28004 6666 ft 273 kts 10°
2026-05-04 13:58 23.68186 113.29133 8445 ft 289 kts
2026-05-04 13:58 23.72204 113.29951 9624 ft 301 kts
2026-05-04 13:58 23.74272 113.30370 10275 ft 305 kts
2026-05-04 13:59 23.76410 113.30795 10619 ft 323 kts
2026-05-04 13:59 23.78701 113.31243 10809 ft 347 kts
2026-05-04 13:59 23.83770 113.32222 11440 ft 386 kts
2026-05-04 14:00 23.86445 113.32736 12156 ft 395 kts
2026-05-04 14:00 23.91933 113.33787 13806 ft 406 kts
2026-05-04 14:00 23.94722 113.34318 14810 ft 407 kts
2026-05-04 14:01 23.97498 113.34845 15696 ft 413 kts
2026-05-04 14:01 24.00350 113.35388 16598 ft 418 kts
2026-05-04 14:01 24.06152 113.36492 18320 ft 429 kts
2026-05-04 14:02 24.09113 113.37056 19126 ft 434 kts
2026-05-04 14:02 24.12107 113.37628 19887 ft 440 kts
2026-05-04 14:02 24.15143 113.38209 20654 ft 445 kts
2026-05-04 14:02 24.18207 113.38796 21397 ft 450 kts
2026-05-04 14:03 24.21311 113.39392 22107 ft 455 kts
2026-05-04 14:03 24.24448 113.39993 22776 ft 461 kts
2026-05-04 14:03 24.27623 113.40603 23445 ft 466 kts
2026-05-04 14:03 24.30830 113.41218 24095 ft 471 kts
2026-05-04 14:04 24.37370 113.42164 25238 ft 476 kts 356°
2026-05-04 14:04 24.40698 113.42266 25739 ft 480 kts 354°
2026-05-04 14:04 24.44040 113.42197 26279 ft 484 kts 352°
2026-05-04 14:05 24.50866 113.42353 27332 ft 496 kts 355°
2026-05-04 14:05 24.54330 113.42493 27833 ft 500 kts 355°
2026-05-04 14:05 24.57824 113.42619 28298 ft 504 kts 355°
2026-05-04 14:06 24.61345 113.42735 28747 ft 509 kts 354°
2026-05-04 14:06 24.64895 113.42846 29180 ft 512 kts 354°
2026-05-04 14:06 24.68470 113.42954 29617 ft 515 kts 354°
2026-05-04 14:06 24.72071 113.43060 29971 ft 520 kts 354°
2026-05-04 14:07 24.75695 113.43166 30399 ft 522 kts 354°
2026-05-04 14:07 24.79332 113.43271 30810 ft 524 kts 354°
2026-05-04 14:07 24.82981 113.43377 31201 ft 525 kts 354°
2026-05-04 14:07 24.86635 113.43482 31769 ft 523 kts 353°
2026-05-04 14:08 24.90257 113.43587 32315 ft 521 kts 353°
2026-05-04 14:08 24.93877 113.43692 32748 ft 520 kts 353°
2026-05-04 14:08 24.97497 113.43796 33195 ft 519 kts 353°
2026-05-04 14:08 25.01096 113.43901 33697 ft 517 kts 353°
2026-05-04 14:09 25.08292 113.44109 34419 ft 517 kts 353°
2026-05-04 14:09 25.11888 113.44213 34881 ft 515 kts 353°
2026-05-04 14:10 25.19004 113.44420 35856 ft 508 kts 353°
2026-05-04 14:10 25.22528 113.44522 36271 ft 505 kts 353°
2026-05-04 14:10 25.26026 113.44624 36762 ft 501 kts 353°
2026-05-04 14:10 25.29513 113.44725 37032 ft 501 kts 353°
2026-05-04 14:11 25.33001 113.44827 37144 ft 501 kts 353°
2026-05-04 14:11 25.43473 113.45132 37153 ft 502 kts 352°
2026-05-04 14:12 25.50446 113.45335 37153 ft 501 kts 352°
2026-05-04 14:13 25.60910 113.45638 37139 ft 502 kts 352°
2026-05-04 14:13 25.67891 113.45844 37153 ft 503 kts 352°
2026-05-04 14:14 25.74891 113.46050 37153 ft 503 kts 352°
2026-05-04 14:14 25.85381 113.46358 37153 ft 503 kts 352°
2026-05-04 14:15 25.98102 113.45999 37153 ft 497 kts 348°
2026-05-04 14:16 26.08469 113.45568 37153 ft 497 kts 348°
2026-05-04 14:17 26.18845 113.45163 37151 ft 497 kts 348°
2026-05-04 14:18 26.29223 113.44762 37153 ft 498 kts 348°
2026-05-04 14:19 26.43055 113.44225 37153 ft 496 kts 348°
2026-05-04 14:19 26.49942 113.43957 37153 ft 496 kts 348°
2026-05-04 14:20 26.56845 113.43694 37153 ft 496 kts 348°
2026-05-04 14:20 26.63729 113.43433 37153 ft 494 kts 348°
2026-05-04 14:21 26.74041 113.43042 37151 ft 495 kts 348°
2026-05-04 14:21 26.80919 113.42780 37154 ft 495 kts 348°
2026-05-04 14:22 26.87805 113.42518 37150 ft 495 kts 348°
2026-05-04 14:22 26.94682 113.42257 37149 ft 495 kts 348°
2026-05-04 14:23 27.04973 113.41866 37148 ft 493 kts 348°
2026-05-04 14:24 27.11830 113.41604 37148 ft 493 kts 348°
2026-05-04 14:24 27.18685 113.41342 37148 ft 493 kts 348°
2026-05-04 14:25 27.25546 113.41078 37149 ft 493 kts 348°
2026-05-04 14:25 27.35826 113.40752 37150 ft 494 kts 350°
2026-05-04 14:26 27.42716 113.40950 37151 ft 497 kts 351°
2026-05-04 14:26 27.49603 113.41106 37150 ft 498 kts 351°
2026-05-04 14:27 27.56575 113.41237 37150 ft 497 kts 350°
2026-05-04 14:27 27.63495 113.41365 37151 ft 497 kts 350°
2026-05-04 14:28 27.70435 113.41772 37152 ft 502 kts 354°
2026-05-04 14:28 27.77354 113.42425 37152 ft 503 kts 354°
2026-05-04 14:29 27.91324 113.43666 37152 ft 503 kts 354°
2026-05-04 14:30 27.98299 113.44274 37152 ft 503 kts 354°
2026-05-04 14:31 28.08750 113.45256 37152 ft 502 kts 354°
2026-05-04 14:32 28.22635 113.46194 37151 ft 499 kts 353°
2026-05-04 14:32 28.29566 113.46682 37153 ft 499 kts 353°
2026-05-04 14:33 28.36509 113.47169 37153 ft 500 kts 353°
2026-05-04 14:33 28.43451 113.47665 37152 ft 500 kts 353°
2026-05-04 14:34 28.50389 113.48170 37152 ft 500 kts 353°
2026-05-04 14:34 28.57331 113.48678 37151 ft 500 kts 353°
2026-05-04 14:35 28.64266 113.49187 37151 ft 499 kts 353°
2026-05-04 14:35 28.71192 113.49695 37150 ft 498 kts 353°
2026-05-04 14:36 28.78105 113.50202 37150 ft 498 kts 353°
2026-05-04 14:36 28.85023 113.50693 37149 ft 497 kts 353°
2026-05-04 14:37 28.91912 113.51185 37148 ft 496 kts 353°
2026-05-04 14:37 28.98809 113.51677 37147 ft 496 kts 353°
2026-05-04 14:38 29.05702 113.52169 37146 ft 496 kts 353°
2026-05-04 14:38 29.12548 113.52660 37145 ft 496 kts 353°
2026-05-04 14:39 29.19441 113.53155 37143 ft 496 kts 353°
2026-05-04 14:39 29.26335 113.53651 37142 ft 496 kts 353°
2026-05-04 14:40 29.36675 113.54514 37139 ft 497 kts 354°
2026-05-04 14:40 29.43563 113.55122 37138 ft 496 kts 354°
2026-05-04 14:41 29.50438 113.55726 37136 ft 495 kts 354°
2026-05-04 14:42 29.64186 113.56931 37133 ft 495 kts 354°
2026-05-04 14:42 29.71069 113.57533 37132 ft 495 kts 354°
2026-05-04 14:43 29.77942 113.58138 37131 ft 495 kts 354°
2026-05-04 14:43 29.84807 113.58744 37129 ft 495 kts 354°
2026-05-04 14:44 29.91683 113.59366 37125 ft 498 kts 356°
2026-05-04 14:44 29.95120 113.60212 37117 ft 512 kts
2026-05-04 14:44 29.98512 113.61515 37118 ft 516 kts 11°
2026-05-04 14:45 30.05175 113.64763 37127 ft 524 kts 15°
2026-05-04 14:45 30.11848 113.68209 37126 ft 525 kts 14°
2026-05-04 14:46 30.18537 113.71581 37125 ft 525 kts 14°
2026-05-04 14:46 30.21873 113.73255 36932 ft 520 kts 14°
2026-05-04 14:46 30.25196 113.74920 36270 ft 519 kts 14°
2026-05-04 14:47 30.28507 113.76569 35671 ft 516 kts 14°
2026-05-04 14:47 30.31790 113.78207 35452 ft 516 kts 14°
2026-05-04 14:47 30.35107 113.79864 35330 ft 520 kts 14°
2026-05-04 14:47 30.38436 113.81524 35254 ft 523 kts 15°
2026-05-04 14:48 30.45096 113.84867 35129 ft 520 kts 15°
2026-05-04 14:48 30.51710 113.88198 35126 ft 519 kts 15°
2026-05-04 14:49 30.58331 113.91538 35124 ft 519 kts 15°
2026-05-04 14:49 30.64953 113.94878 35123 ft 518 kts 15°
2026-05-04 14:50 30.71597 113.98114 35123 ft 519 kts 17°
2026-05-04 14:50 30.78097 114.01798 35124 ft 521 kts 18°
2026-05-04 14:51 30.84627 114.05325 35124 ft 521 kts 17°
2026-05-04 14:51 30.91235 114.08899 35124 ft 519 kts 17°
2026-05-04 14:52 30.97765 114.12455 35123 ft 517 kts 17°
2026-05-04 14:52 31.04239 114.15985 35126 ft 517 kts 18°
2026-05-04 14:53 31.10760 114.19514 35127 ft 516 kts 18°
2026-05-04 14:53 31.17267 114.23058 35128 ft 516 kts 18°
2026-05-04 14:54 31.23764 114.26609 35128 ft 515 kts 18°
2026-05-04 14:54 31.30256 114.30162 35129 ft 515 kts 18°
2026-05-04 14:55 31.36913 114.32751 35132 ft 497 kts
2026-05-04 14:55 31.43754 114.33544 35129 ft 490 kts 355°
2026-05-04 14:56 31.50526 114.33680 35129 ft 485 kts 353°
2026-05-04 14:56 31.57282 114.33846 35129 ft 485 kts 354°
2026-05-04 14:57 31.64034 114.34045 35129 ft 485 kts 354°
2026-05-04 14:57 31.70779 114.34248 35128 ft 485 kts 354°
2026-05-04 14:58 31.77526 114.34413 35128 ft 485 kts 354°
2026-05-04 14:58 31.83176 114.34539 35127 ft 485 kts 354°
2026-05-04 14:59 31.91012 114.34795 35124 ft 485 kts 354°
2026-05-04 15:00 31.99999 114.35081 35123 ft 485 kts 354°
2026-05-04 15:00 32.06781 114.35297 35122 ft 484 kts 355°
2026-05-04 15:01 32.16879 114.35619 35119 ft 484 kts 355°
2026-05-04 15:01 32.23547 114.35831 35118 ft 483 kts 355°
2026-05-04 15:02 32.30272 114.36201 35116 ft 484 kts 358°
2026-05-04 15:02 32.36994 114.36878 35115 ft 486 kts 358°
2026-05-04 15:03 32.43731 114.37500 35113 ft 485 kts 358°
2026-05-04 15:03 32.50464 114.38105 35111 ft 484 kts 358°
2026-05-04 15:04 32.57181 114.38708 35109 ft 484 kts 358°
2026-05-04 15:04 32.63892 114.39309 35108 ft 484 kts 358°
2026-05-04 15:05 32.70605 114.39931 35106 ft 483 kts 359°
2026-05-04 15:05 32.77306 114.40560 35104 ft 483 kts 359°
2026-05-04 15:06 32.83997 114.41188 35102 ft 482 kts 359°
2026-05-04 15:07 32.94021 114.42131 35098 ft 481 kts 359°
2026-05-04 15:07 33.00692 114.42753 35097 ft 480 kts 359°
2026-05-04 15:08 33.07349 114.43379 35094 ft 479 kts 359°
2026-05-04 15:08 33.13991 114.44007 35093 ft 479 kts 359°
2026-05-04 15:09 33.20633 114.44636 35091 ft 478 kts 360°
2026-05-04 15:09 33.27259 114.45263 35089 ft 478 kts 360°
2026-05-04 15:10 33.37192 114.46200 35086 ft 476 kts 360°
2026-05-04 15:11 33.47093 114.47139 35083 ft 475 kts
2026-05-04 15:11 33.53683 114.47765 35081 ft 475 kts
2026-05-04 15:12 33.60270 114.48392 35080 ft 475 kts
2026-05-04 15:12 33.66810 114.48993 35079 ft 474 kts
2026-05-04 15:13 33.73387 114.49593 35076 ft 474 kts
2026-05-04 15:13 33.79959 114.50194 35075 ft 474 kts
2026-05-04 15:14 33.86526 114.50809 35073 ft 473 kts
2026-05-04 15:14 33.93087 114.51433 35073 ft 473 kts
2026-05-04 15:15 33.99653 114.52058 35072 ft 473 kts
2026-05-04 15:15 34.06202 114.52683 35071 ft 471 kts
2026-05-04 15:16 34.15993 114.53614 35070 ft 471 kts
2026-05-04 15:17 34.25795 114.54549 35069 ft 471 kts
2026-05-04 15:17 34.35593 114.55489 35068 ft 471 kts
2026-05-04 15:18 34.42123 114.56117 35068 ft 471 kts
2026-05-04 15:19 34.51918 114.57053 35067 ft 470 kts
2026-05-04 15:19 34.61704 114.57984 35067 ft 470 kts
2026-05-04 15:20 34.68224 114.58607 35067 ft 470 kts
2026-05-04 15:20 34.74743 114.59230 35063 ft 470 kts
2026-05-04 15:21 34.81259 114.59853 35061 ft 470 kts
2026-05-04 15:22 34.91022 114.60783 35063 ft 469 kts
2026-05-04 15:22 35.00705 114.61711 35058 ft 463 kts
2026-05-04 15:23 35.07125 114.62329 35058 ft 463 kts
2026-05-04 15:23 35.13555 114.62948 35057 ft 463 kts
2026-05-04 15:24 35.26405 114.64189 35055 ft 463 kts
2026-05-04 15:25 35.32773 114.64805 35054 ft 462 kts
2026-05-04 15:26 35.42389 114.65737 35052 ft 462 kts
2026-05-04 15:26 35.51992 114.66671 35050 ft 461 kts
2026-05-04 15:27 35.61587 114.67606 35047 ft 461 kts
2026-05-04 15:28 35.71176 114.68542 35044 ft 461 kts
2026-05-04 15:29 35.80761 114.69478 35042 ft 461 kts
2026-05-04 15:30 36.03142 114.71681 35024 ft 459 kts
2026-05-04 15:31 36.12657 114.72611 35020 ft 457 kts
2026-05-04 15:32 36.28487 114.74147 35011 ft 457 kts
2026-05-04 15:34 36.44348 114.74786 35003 ft 455 kts 355°
2026-05-04 15:34 36.53823 114.74278 34997 ft 455 kts 355°
2026-05-04 15:35 36.63312 114.73846 34993 ft 454 kts 355°
2026-05-04 15:36 36.72786 114.73421 34988 ft 454 kts 356°
2026-05-04 15:36 36.79027 114.74434 34986 ft 459 kts 14°
2026-05-04 15:37 36.85012 114.77306 34986 ft 463 kts 21°
2026-05-04 15:37 36.90843 114.80758 34983 ft 464 kts 22°
2026-05-04 15:38 36.96669 114.84223 34980 ft 464 kts 22°
2026-05-04 15:38 37.02507 114.87656 34977 ft 463 kts 22°
2026-05-04 15:39 37.08347 114.91082 34975 ft 463 kts 22°
2026-05-04 15:40 37.17107 114.96188 34971 ft 463 kts 22°
2026-05-04 15:40 37.22941 114.99596 34969 ft 462 kts 22°
2026-05-04 15:41 37.28767 115.03016 34967 ft 463 kts 22°
2026-05-04 15:41 37.34566 115.06439 34739 ft 456 kts 22°
2026-05-04 15:41 37.37426 115.08130 34489 ft 454 kts 22°
2026-05-04 15:42 37.40246 115.09799 34170 ft 453 kts 22°
2026-05-04 15:42 37.43099 115.11488 33809 ft 453 kts 22°
2026-05-04 15:42 37.45954 115.13179 33402 ft 454 kts 22°
2026-05-04 15:42 37.48816 115.14873 33101 ft 454 kts 22°
2026-05-04 15:43 37.51673 115.16567 33028 ft 455 kts 22°
2026-05-04 15:43 37.57411 115.19943 32960 ft 455 kts 22°
2026-05-04 15:44 37.63145 115.23347 32958 ft 455 kts 22°
2026-05-04 15:44 37.68868 115.26757 32956 ft 455 kts 22°
2026-05-04 15:45 37.74593 115.30173 32939 ft 453 kts 22°
2026-05-04 15:45 37.77436 115.31863 32754 ft 448 kts 21°
2026-05-04 15:45 37.80389 115.32933 32509 ft 440 kts
2026-05-04 15:45 37.82405 115.33139 32278 ft 438 kts
2026-05-04 15:46 37.85455 115.33165 31820 ft 440 kts 358°
2026-05-04 15:46 37.88513 115.32978 31413 ft 440 kts 354°
2026-05-04 15:46 37.92581 115.32445 31075 ft 440 kts 352°
2026-05-04 15:47 37.97642 115.31664 30968 ft 441 kts 352°
2026-05-04 15:47 38.03727 115.30792 30953 ft 439 kts 353°
2026-05-04 15:48 38.09790 115.29929 30953 ft 439 kts 353°
2026-05-04 15:48 38.18740 115.28615 30291 ft 431 kts 353°
2026-05-04 15:49 38.21736 115.28175 29793 ft 436 kts 353°
2026-05-04 15:49 38.24761 115.27730 29300 ft 440 kts 353°
2026-05-04 15:49 38.27820 115.27280 28915 ft 443 kts 353°
2026-05-04 15:49 38.30895 115.26833 28539 ft 446 kts 353°
2026-05-04 15:50 38.33973 115.26383 28164 ft 446 kts 353°
2026-05-04 15:50 38.37058 115.25930 27788 ft 445 kts 353°
2026-05-04 15:50 38.40130 115.25477 27412 ft 443 kts 353°
2026-05-04 15:50 38.43189 115.25025 27037 ft 442 kts 353°
2026-05-04 15:51 38.46234 115.24574 26661 ft 440 kts 353°
2026-05-04 15:51 38.49274 115.24124 26286 ft 439 kts 353°
2026-05-04 15:51 38.52266 115.23681 25915 ft 438 kts 353°
2026-05-04 15:51 38.55295 115.23583 25531 ft 437 kts
2026-05-04 15:52 38.58215 115.24609 25155 ft 437 kts 22°
2026-05-04 15:52 38.60780 115.26701 24785 ft 439 kts 38°
2026-05-04 15:52 38.62993 115.29396 24408 ft 441 kts 46°
2026-05-04 15:52 38.64796 115.32575 24033 ft 442 kts 57°
2026-05-04 15:53 38.66199 115.36066 23661 ft 441 kts 64°
2026-05-04 15:53 38.67416 115.39622 23284 ft 431 kts 65°
2026-05-04 15:53 38.68567 115.43133 22908 ft 424 kts 65°
2026-05-04 15:53 38.69773 115.46547 22533 ft 419 kts 63°
2026-05-04 15:54 38.71009 115.49907 22157 ft 415 kts 63°
2026-05-04 15:54 38.72277 115.53214 21781 ft 412 kts 60°
2026-05-04 15:54 38.73669 115.56405 21407 ft 410 kts 58°
2026-05-04 15:54 38.75126 115.59528 21031 ft 407 kts 57°
2026-05-04 15:55 38.76587 115.62620 20655 ft 405 kts 57°
2026-05-04 15:55 38.78029 115.65703 20280 ft 402 kts 58°
2026-05-04 15:55 38.79453 115.68771 19984 ft 399 kts 58°
2026-05-04 15:55 38.80859 115.71814 19733 ft 395 kts 58°
2026-05-04 15:56 38.82251 115.74835 19482 ft 393 kts 58°
2026-05-04 15:56 38.83641 115.77860 19231 ft 392 kts 58°
2026-05-04 15:56 38.85021 115.80865 18981 ft 390 kts 58°
2026-05-04 15:56 38.86413 115.83846 18730 ft 389 kts 57°
2026-05-04 15:57 38.87807 115.86806 18480 ft 387 kts 57°
2026-05-04 15:57 38.89180 115.89766 18230 ft 385 kts 58°
2026-05-04 15:57 38.90540 115.92725 17979 ft 384 kts 58°
2026-05-04 15:57 38.91872 115.95639 17731 ft 383 kts 58°
2026-05-04 15:58 38.93215 115.98583 17481 ft 382 kts 58°
2026-05-04 15:58 38.94553 116.01521 17230 ft 380 kts 58°
2026-05-04 15:58 38.95869 116.04413 16977 ft 370 kts 58°
2026-05-04 15:58 38.97148 116.07228 16725 ft 360 kts 58°
2026-05-04 15:59 38.98396 116.09974 16473 ft 352 kts 57°
2026-05-04 15:59 38.99623 116.12665 16221 ft 347 kts 56°
2026-05-04 15:59 39.01184 116.14970 15954 ft 340 kts 36°
2026-05-04 15:59 39.03262 116.16352 15600 ft 336 kts 15°
2026-05-04 16:00 39.05537 116.16900 15239 ft 331 kts
2026-05-04 16:00 39.07825 116.16988 14868 ft 327 kts 357°
2026-05-04 16:00 39.10085 116.16803 14494 ft 324 kts 353°
2026-05-04 16:00 39.12320 116.16448 14118 ft 322 kts 350°
2026-05-04 16:01 39.14529 116.16042 13743 ft 320 kts 350°
2026-05-04 16:01 39.16728 116.15668 13454 ft 317 kts 351°
2026-05-04 16:01 39.18915 116.15321 13203 ft 316 kts 351°
2026-05-04 16:01 39.21102 116.14983 12952 ft 316 kts 351°
2026-05-04 16:02 39.23279 116.14649 12703 ft 315 kts 351°
2026-05-04 16:02 39.25452 116.14316 12452 ft 314 kts 350°
2026-05-04 16:02 39.29779 116.13656 11950 ft 312 kts 350°
2026-05-04 16:03 39.31928 116.13326 11699 ft 311 kts 350°
2026-05-04 16:03 39.34084 116.12994 11461 ft 312 kts 350°
2026-05-04 16:03 39.36243 116.12663 11340 ft 313 kts 350°
2026-05-04 16:03 39.38406 116.12329 11212 ft 313 kts 350°
2026-05-04 16:04 39.40574 116.11994 11085 ft 314 kts 349°
2026-05-04 16:04 39.44908 116.11325 10835 ft 314 kts 349°
2026-05-04 16:04 39.47085 116.10990 10709 ft 315 kts 349°
2026-05-04 16:05 39.49245 116.10656 10583 ft 308 kts 349°
2026-05-04 16:05 39.51335 116.10337 10393 ft 299 kts 349°
2026-05-04 16:05 39.55390 116.09722 9886 ft 293 kts 349°
2026-05-04 16:06 39.57449 116.09408 9633 ft 295 kts 349°
2026-05-04 16:06 39.62902 116.08574 8659 ft 296 kts 349°
2026-05-04 16:07 39.65603 116.08159 8167 ft 294 kts 349°
2026-05-04 16:07 39.71672 116.07228 7129 ft 285 kts 349°
2026-05-04 16:08 39.73629 116.07138 6874 ft 281 kts
2026-05-04 16:08 39.77262 116.12207 6110 ft 266 kts 82°
2026-05-04 16:09 39.77349 116.16902 5647 ft 251 kts 89°
2026-05-04 16:09 39.77653 116.21182 5265 ft 227 kts 84°
2026-05-04 16:10 39.78074 116.25090 4871 ft 213 kts 85°
2026-05-04 16:11 39.78570 116.30840 4346 ft 212 kts 88°
2026-05-04 16:11 39.78316 116.32690 4165 ft 209 kts 119°
2026-05-04 16:12 39.74640 116.35019 3902 ft 198 kts 169°
2026-05-04 16:12 39.70607 116.35738 3796 ft 195 kts 175°
2026-05-04 16:13 39.67926 116.36158 3282 ft 189 kts 175°
2026-05-04 16:13 39.65448 116.36551 2780 ft 173 kts 175°
2026-05-04 16:14 39.63111 116.36922 2330 ft 168 kts 175°
2026-05-04 16:14 39.60837 116.37283 1926 ft 160 kts 175°
2026-05-04 16:15 39.57722 116.37776 1293 ft 143 kts 174°
2026-05-04 16:16 39.55727 116.38102 877 ft 144 kts 172°
2026-05-04 16:16 39.52726 116.38588 333 ft 145 kts 174°
2026-05-04 16:17 39.50787 116.38885 97 ft 122 kts 175°
2026-05-04 16:18 39.49772 116.39044 96 ft 22 kts 155°
2026-05-04 16:18 39.49663 116.39122 96 ft 11 kts 148°
2026-05-04 16:19 39.49476 116.39279 96 ft 10 kts 147°
2026-05-04 16:19 39.49343 116.39324 96 ft 10 kts 173°
2026-05-04 16:20 39.49144 116.39361 96 ft 9 kts 159°
2026-05-04 16:20 39.49026 116.39459 96 ft 8 kts 138°
2026-05-04 16:21 39.49026 116.39678 96 ft 11 kts 83°
2026-05-04 16:22 39.49052 116.39959 96 ft 15 kts 83°
2026-05-04 16:22 39.49141 116.40249 96 ft 18 kts 352°
2026-05-04 16:23 39.49502 116.40192 96 ft 16 kts 353°
2026-05-04 16:24 39.49893 116.40130 96 ft 13 kts 353°
2026-05-04 16:25 39.50060 116.40104 96 ft 10 kts 355°
2026-05-04 16:26 39.50148 116.40623 96 ft 16 kts 83°
2026-05-04 16:26 39.50185 116.41014 96 ft 13 kts 83°
2026-05-04 16:27 39.50207 116.41241 96 ft 12 kts 83°
2026-05-04 16:28 39.50242 116.41545 96 ft 10 kts 53°
2026-05-04 16:28 39.50424 116.41548 96 ft 8 kts 353°
2026-05-04 16:29 39.50627 116.41402 96 ft 5 kts 276°
2026-05-04 16:30 39.50605 116.41282 96 ft 4 kts 251°
2026-05-04 16:31 39.50598 116.41256 96 ft 0 kts 251°